AUA72H LOWW-LYBE

Flight info

Callsign AUA72H
Flight time 0h 45m
Altitude 35000
Route ARSIN1B/16 ARSIN DCT NALOX DCT BABIT DCT RIGMU
Aircraft A320/M-SDE3FGHIRWY/LB1

Departure

Time 2026-05-05 17:34
Airport Vienna International Airport (LOWW)

Arrival

Time 2026-05-05 18:19
Airport Belgrade Nikola Tesla Airport (LYBE)
Time Latitude Longitude Altitude Speed Heading
2026-05-05 17:18 48.11825 16.56984 610 ft 0 kts 206°
2026-05-05 17:26 48.11838 16.56994 624 ft 4 kts 202°
2026-05-05 17:26 48.11869 16.57010 624 ft 3 kts 188°
2026-05-05 17:26 48.11884 16.57012 618 ft 2 kts 163°
2026-05-05 17:27 48.11894 16.57005 626 ft 2 kts 136°
2026-05-05 17:27 48.11903 16.56992 625 ft 2 kts 122°
2026-05-05 17:27 48.11909 16.56978 619 ft 2 kts 117°
2026-05-05 17:27 48.11913 16.56963 624 ft 2 kts 115°
2026-05-05 17:28 48.11916 16.56956 617 ft 0 kts 115°
2026-05-05 17:30 48.11915 16.56958 624 ft 1 kts 115°
2026-05-05 17:30 48.11909 16.56979 618 ft 6 kts 115°
2026-05-05 17:30 48.11886 16.57049 616 ft 8 kts 116°
2026-05-05 17:31 48.11859 16.57137 617 ft 10 kts 107°
2026-05-05 17:31 48.11844 16.57250 616 ft 12 kts 108°
2026-05-05 17:31 48.11889 16.57308 610 ft 10 kts 347°
2026-05-05 17:31 48.11961 16.57289 620 ft 10 kts
2026-05-05 17:32 48.11996 16.57364 613 ft 9 kts 75°
2026-05-05 17:32 48.12011 16.57455 613 ft 13 kts 81°
2026-05-05 17:32 48.11988 16.57627 621 ft 19 kts 105°
2026-05-05 17:32 48.11954 16.57812 615 ft 14 kts 115°
2026-05-05 17:33 48.11910 16.57847 618 ft 0 kts 164°
2026-05-05 17:33 48.11903 16.57850 614 ft 4 kts 165°
2026-05-05 17:33 48.11690 16.57938 611 ft 69 kts 164°
2026-05-05 17:33 48.11013 16.58224 615 ft 131 kts 164°
2026-05-05 17:34 48.10021 16.58648 940 ft 154 kts 165°
2026-05-05 17:34 48.08981 16.59085 1655 ft 156 kts 166°
2026-05-05 17:34 48.07944 16.59524 2505 ft 154 kts 167°
2026-05-05 17:34 48.06927 16.59970 3320 ft 149 kts 169°
2026-05-05 17:35 48.05919 16.60402 3891 ft 154 kts 170°
2026-05-05 17:35 48.04819 16.60856 4161 ft 175 kts 170°
2026-05-05 17:35 48.03562 16.61371 4408 ft 200 kts 169°
2026-05-05 17:35 48.02139 16.61957 4709 ft 225 kts 169°
2026-05-05 17:36 48.00550 16.62618 5110 ft 248 kts 169°
2026-05-05 17:36 47.98853 16.63286 5849 ft 254 kts 174°
2026-05-05 17:36 47.97087 16.63345 6630 ft 255 kts 183°
2026-05-05 17:36 47.95296 16.63579 7442 ft 262 kts 174°
2026-05-05 17:37 47.93515 16.64095 8274 ft 266 kts 170°
2026-05-05 17:37 47.91694 16.64721 9095 ft 270 kts 170°
2026-05-05 17:37 47.89847 16.65364 9880 ft 275 kts 170°
2026-05-05 17:37 47.87949 16.66001 10425 ft 289 kts 171°
2026-05-05 17:38 47.85904 16.66654 10667 ft 311 kts 171°
2026-05-05 17:38 47.83734 16.67327 11110 ft 325 kts 171°
2026-05-05 17:38 47.81502 16.68007 11810 ft 330 kts 171°
2026-05-05 17:38 47.79243 16.68683 12530 ft 334 kts 171°
2026-05-05 17:39 47.76951 16.69364 13246 ft 338 kts 171°
2026-05-05 17:39 47.74630 16.70056 13908 ft 342 kts 171°
2026-05-05 17:39 47.72281 16.70755 14522 ft 346 kts 171°
2026-05-05 17:39 47.69908 16.71460 15158 ft 349 kts 171°
2026-05-05 17:40 47.67513 16.72170 15782 ft 353 kts 171°
2026-05-05 17:40 47.65093 16.72887 16405 ft 356 kts 172°
2026-05-05 17:40 47.62656 16.73609 17053 ft 358 kts 171°
2026-05-05 17:40 47.60197 16.74335 17654 ft 362 kts 172°
2026-05-05 17:41 47.57716 16.75066 18249 ft 365 kts 171°
2026-05-05 17:41 47.55209 16.75773 18747 ft 371 kts 166°
2026-05-05 17:41 47.52899 16.77545 19247 ft 382 kts 144°
2026-05-05 17:41 47.50969 16.80303 19772 ft 388 kts 138°
2026-05-05 17:42 47.49041 16.83126 20299 ft 391 kts 138°
2026-05-05 17:42 47.47079 16.85926 20828 ft 394 kts 140°
2026-05-05 17:42 47.45082 16.88731 21357 ft 397 kts 140°
2026-05-05 17:42 47.43062 16.91536 21886 ft 401 kts 140°
2026-05-05 17:43 47.41018 16.94362 22393 ft 404 kts 140°
2026-05-05 17:43 47.38960 16.97207 22901 ft 407 kts 139°
2026-05-05 17:43 47.36893 17.00076 23402 ft 410 kts 140°
2026-05-05 17:43 47.34813 17.02973 23814 ft 413 kts 139°
2026-05-05 17:44 47.32718 17.05891 24223 ft 415 kts 139°
2026-05-05 17:44 47.30615 17.08817 24620 ft 417 kts 140°
2026-05-05 17:44 47.28498 17.11760 25014 ft 420 kts 140°
2026-05-05 17:44 47.26366 17.14717 25390 ft 422 kts 140°
2026-05-05 17:45 47.24221 17.17686 25757 ft 424 kts 140°
2026-05-05 17:45 47.22088 17.20635 26114 ft 427 kts 140°
2026-05-05 17:45 47.19916 17.23638 26471 ft 429 kts 140°
2026-05-05 17:45 47.17732 17.26648 26820 ft 432 kts 140°
2026-05-05 17:46 47.15534 17.29674 27158 ft 435 kts 140°
2026-05-05 17:46 47.13323 17.32716 27504 ft 437 kts 140°
2026-05-05 17:46 47.11097 17.35780 27842 ft 439 kts 140°
2026-05-05 17:46 47.08859 17.38857 28176 ft 442 kts 140°
2026-05-05 17:47 47.06610 17.41944 28493 ft 444 kts 140°
2026-05-05 17:47 47.04346 17.45044 28804 ft 446 kts 140°
2026-05-05 17:47 47.02070 17.48158 29109 ft 449 kts 140°
2026-05-05 17:47 46.99785 17.51280 29408 ft 451 kts 140°
2026-05-05 17:48 46.97481 17.54424 29696 ft 453 kts 140°
2026-05-05 17:48 46.95174 17.57575 29976 ft 455 kts 140°
2026-05-05 17:48 46.92848 17.60752 30212 ft 457 kts 140°
2026-05-05 17:48 46.90509 17.63941 30448 ft 459 kts 140°
2026-05-05 17:49 46.88168 17.67126 30678 ft 460 kts 140°
2026-05-05 17:49 46.85820 17.70313 30888 ft 462 kts 140°
2026-05-05 17:49 46.83486 17.73474 31119 ft 463 kts 140°
2026-05-05 17:49 46.81126 17.76662 31424 ft 462 kts 140°
2026-05-05 17:50 46.78772 17.79843 31723 ft 461 kts 140°
2026-05-05 17:50 46.76417 17.83020 32023 ft 461 kts 140°
2026-05-05 17:50 46.74065 17.86188 32314 ft 460 kts 140°
2026-05-05 17:50 46.71715 17.89347 32612 ft 460 kts 140°
2026-05-05 17:51 46.69363 17.92504 32869 ft 460 kts 140°
2026-05-05 17:51 46.64657 17.98807 32937 ft 459 kts 140°
2026-05-05 17:52 46.59952 18.05101 32937 ft 459 kts 140°
2026-05-05 17:52 46.55255 18.11380 32940 ft 459 kts 140°
2026-05-05 17:53 46.50553 18.17651 32939 ft 459 kts 140°
2026-05-05 17:53 46.45844 18.23906 32939 ft 459 kts 140°
2026-05-05 17:54 46.41129 18.30166 32938 ft 459 kts 140°
2026-05-05 17:54 46.36412 18.36418 32938 ft 460 kts 140°
2026-05-05 17:55 46.31679 18.42661 32942 ft 460 kts 140°
2026-05-05 17:55 46.26979 18.48841 32948 ft 460 kts 140°
2026-05-05 17:56 46.22212 18.55095 32945 ft 460 kts 140°
2026-05-05 17:56 46.17508 18.61248 32937 ft 459 kts 140°
2026-05-05 17:56 46.15156 18.64317 32679 ft 453 kts 140°
2026-05-05 17:57 46.12828 18.67356 32412 ft 450 kts 140°
2026-05-05 17:57 46.10516 18.70372 32148 ft 447 kts 140°
2026-05-05 17:57 46.08220 18.73366 31652 ft 443 kts 140°
2026-05-05 17:57 46.05938 18.76339 31067 ft 440 kts 140°
2026-05-05 17:58 46.03673 18.79288 30495 ft 437 kts 140°
2026-05-05 17:58 46.01425 18.82210 29918 ft 435 kts 140°
2026-05-05 17:58 45.99180 18.85122 29315 ft 432 kts 140°
2026-05-05 17:58 45.96964 18.87991 28770 ft 427 kts 140°
2026-05-05 17:59 45.94761 18.90835 28221 ft 423 kts 140°
2026-05-05 17:59 45.92494 18.93487 27685 ft 418 kts 148°
2026-05-05 17:59 45.90058 18.95728 27173 ft 413 kts 149°
2026-05-05 17:59 45.87641 18.97928 26664 ft 410 kts 149°
2026-05-05 18:00 45.85243 19.00116 26176 ft 407 kts 149°
2026-05-05 18:00 45.82893 19.02263 25686 ft 404 kts 149°
2026-05-05 18:00 45.80532 19.04417 25222 ft 401 kts 149°
2026-05-05 18:00 45.78185 19.06552 24758 ft 398 kts 149°
2026-05-05 18:01 45.75849 19.08672 24299 ft 396 kts 149°
2026-05-05 18:01 45.73523 19.10782 23841 ft 393 kts 149°
2026-05-05 18:01 45.71217 19.12873 23352 ft 392 kts 149°
2026-05-05 18:01 45.68924 19.14951 22865 ft 388 kts 149°
2026-05-05 18:02 45.66656 19.17007 22408 ft 385 kts 149°
2026-05-05 18:02 45.64405 19.19047 21941 ft 382 kts 149°
2026-05-05 18:02 45.62168 19.21069 21502 ft 380 kts 149°
2026-05-05 18:02 45.59940 19.23079 21064 ft 377 kts 149°
2026-05-05 18:03 45.57730 19.25068 20638 ft 374 kts 149°
2026-05-05 18:03 45.55537 19.27039 20222 ft 371 kts 149°
2026-05-05 18:03 45.53362 19.28991 19805 ft 368 kts 149°
2026-05-05 18:03 45.51201 19.30932 19392 ft 365 kts 149°
2026-05-05 18:04 45.49057 19.32856 18981 ft 363 kts 149°
2026-05-05 18:04 45.46928 19.34766 18586 ft 360 kts 149°
2026-05-05 18:04 45.44844 19.36635 18200 ft 358 kts 149°
2026-05-05 18:04 45.42746 19.38515 17740 ft 355 kts 149°
2026-05-05 18:05 45.40638 19.40403 17291 ft 352 kts 149°
2026-05-05 18:05 45.38596 19.42227 16842 ft 350 kts 149°
2026-05-05 18:05 45.36548 19.44057 16283 ft 345 kts 149°
2026-05-05 18:05 45.34544 19.45851 15442 ft 336 kts 149°
2026-05-05 18:06 45.32587 19.47619 14543 ft 329 kts 149°
2026-05-05 18:06 45.31940 19.48208 14255 ft 327 kts 149°
2026-05-05 18:06 45.31338 19.48756 13987 ft 324 kts 149°
2026-05-05 18:07 45.29726 19.50250 13199 ft 319 kts 148°
2026-05-05 18:08 45.27908 19.52031 12289 ft 316 kts 146°
2026-05-05 18:08 45.26157 19.53897 11448 ft 314 kts 145°
2026-05-05 18:08 45.24440 19.55795 10662 ft 312 kts 144°
2026-05-05 18:08 45.22737 19.57694 9766 ft 309 kts 145°
2026-05-05 18:09 45.21068 19.59551 8788 ft 300 kts 145°
2026-05-05 18:09 45.19438 19.61345 7814 ft 293 kts 146°
2026-05-05 18:09 45.17851 19.63063 6920 ft 287 kts 146°
2026-05-05 18:09 45.16280 19.64747 6311 ft 278 kts 146°
2026-05-05 18:10 45.14739 19.66395 6063 ft 277 kts 145°
2026-05-05 18:10 45.13213 19.68030 5811 ft 274 kts 145°
2026-05-05 18:10 45.11699 19.69658 5564 ft 272 kts 145°
2026-05-05 18:10 45.10195 19.71279 5311 ft 271 kts 144°
2026-05-05 18:11 45.08712 19.72877 5064 ft 264 kts 144°
2026-05-05 18:11 45.07261 19.74439 4822 ft 262 kts 144°
2026-05-05 18:11 45.05946 19.76212 4566 ft 262 kts 131°
2026-05-05 18:11 45.04928 19.78352 4308 ft 262 kts 123°
2026-05-05 18:12 45.03979 19.80544 4063 ft 261 kts 123°
2026-05-05 18:12 45.03028 19.82718 3894 ft 260 kts 123°
2026-05-05 18:12 45.02075 19.84887 3748 ft 259 kts 123°
2026-05-05 18:12 45.01125 19.87046 3596 ft 258 kts 123°
2026-05-05 18:13 45.00194 19.89160 3450 ft 258 kts 123°
2026-05-05 18:13 44.99583 19.90546 3367 ft 256 kts 123°
2026-05-05 18:13 44.98633 19.92700 3328 ft 256 kts 123°
2026-05-05 18:13 44.97691 19.94834 3270 ft 256 kts 123°
2026-05-05 18:14 44.96752 19.96964 3224 ft 256 kts 123°
2026-05-05 18:14 44.95800 19.99120 3144 ft 271 kts 123°
2026-05-05 18:14 44.94765 20.01480 3018 ft 288 kts 122°
2026-05-05 18:14 44.93739 20.03920 3004 ft 291 kts 122°
2026-05-05 18:15 44.92684 20.06356 3009 ft 289 kts 123°
2026-05-05 18:15 44.91663 20.08674 3000 ft 264 kts 123°
2026-05-05 18:15 44.90750 20.10748 3004 ft 234 kts 123°
2026-05-05 18:15 44.89929 20.12613 2916 ft 218 kts 123°
2026-05-05 18:16 44.89140 20.14402 2680 ft 211 kts 123°
2026-05-05 18:16 44.88386 20.16113 2431 ft 198 kts 123°
2026-05-05 18:16 44.87669 20.17740 2187 ft 190 kts 123°
2026-05-05 18:16 44.87008 20.19240 1957 ft 171 kts 123°
2026-05-05 18:17 44.86413 20.20588 1737 ft 153 kts 123°
2026-05-05 18:17 44.85880 20.21793 1529 ft 142 kts 123°
2026-05-05 18:17 44.85358 20.22974 1351 ft 138 kts 123°
2026-05-05 18:17 44.84855 20.24120 1171 ft 138 kts 122°
2026-05-05 18:18 44.84351 20.25270 1031 ft 139 kts 121°
2026-05-05 18:18 44.83845 20.26427 783 ft 137 kts 120°
2026-05-05 18:18 44.83329 20.27586 614 ft 141 kts 120°
2026-05-05 18:18 44.82801 20.28769 394 ft 143 kts 120°
2026-05-05 18:19 44.82291 20.29911 309 ft 126 kts 122°
2026-05-05 18:19 44.81908 20.30769 308 ft 80 kts 122°
2026-05-05 18:19 44.81728 20.31172 306 ft 30 kts 124°
2026-05-05 18:19 44.81600 20.31292 307 ft 15 kts 153°
2026-05-05 18:20 44.81519 20.31376 305 ft 15 kts 152°
2026-05-05 18:20 44.81432 20.31442 307 ft 14 kts 152°
2026-05-05 18:20 44.81348 20.31449 306 ft 12 kts 217°
2026-05-05 18:20 44.81332 20.31362 307 ft 10 kts 297°
2026-05-05 18:21 44.81380 20.31249 306 ft 16 kts 301°
2026-05-05 18:21 44.81438 20.31118 306 ft 16 kts 301°
2026-05-05 18:21 44.81495 20.30988 307 ft 17 kts 304°
2026-05-05 18:21 44.81586 20.30783 309 ft 32 kts 303°
2026-05-05 18:22 44.81706 20.30513 308 ft 33 kts 302°
2026-05-05 18:22 44.81832 20.30236 307 ft 34 kts 300°
2026-05-05 18:22 44.81953 20.29955 308 ft 33 kts 304°
2026-05-05 18:22 44.82071 20.29690 308 ft 29 kts 301°
2026-05-05 18:23 44.82109 20.29537 307 ft 6 kts 226°
2026-05-05 18:23 44.82098 20.29443 307 ft 21 kts 303°
2026-05-05 18:23 44.82167 20.29283 310 ft 19 kts 301°
2026-05-05 18:23 44.82170 20.29171 308 ft 11 kts 212°
2026-05-05 18:24 44.82132 20.29138 307 ft 2 kts 212°
2026-05-05 18:24 44.82131 20.29138 307 ft 0 kts 212°
2026-05-05 18:26 44.82131 20.29137 307 ft 0 kts 212°